This is the latest recevied weather packets stored in our database for station/object KO6SRA-13. If no packets are shown the sender has not sent any weather packets the latest 10 day(s).
| Time | Temp. | Humidity | Pressure | Rain* | Wind** | Luminosity | Snow |
|---|---|---|---|---|---|---|---|
| 1787628494 | 15.56° C | 92% | 1018.7 hPa | 0 mm | - | 0 W/m² | - |
| 1787628193 | 15.56° C | 92% | 1018.9 hPa | 0 mm | - | 0 W/m² | - |
| 1787627889 | 15.56° C | 93% | 1018.6 hPa | 0 mm | - | 0 W/m² | - |
| 1787627584 | 15.56° C | 93% | 1018.6 hPa | 0 mm | - | 0 W/m² | - |
| 1787627280 | 15.56° C | 93% | 1018.6 hPa | 0 mm | - | 0 W/m² | - |
| 1787626976 | 15.56° C | 92% | 1018.6 hPa | 0 mm | - | 0 W/m² | - |
| 1787626675 | 15.56° C | 92% | 1018.5 hPa | 0 mm | - | 0 W/m² | - |
| 1787626372 | 15.56° C | 92% | 1018.4 hPa | 0 mm | - | 0 W/m² | - |
| 1787626070 | 15.56° C | 92% | 1018.5 hPa | 0 mm | - | 0 W/m² | - |
| 1787625767 | 15.56° C | 92% | 1018.5 hPa | 0 mm | - | 1 W/m² | - |
| 1787625461 | 15.56° C | 91% | 1018.5 hPa | 0 mm | - | 3 W/m² | - |
| 1787625158 | 15.56° C | 92% | 1018.5 hPa | 0 mm | - | 5 W/m² | - |
| 1787624854 | 15.56° C | 91% | 1018.5 hPa | 0 mm | - | 8 W/m² | - |
| 1787624554 | 16.11° C | 90% | 1018.5 hPa | 0 mm | - | 9 W/m² | - |
| 1787624249 | 16.11° C | 89% | 1018.5 hPa | 0 mm | - | 12 W/m² | - |
| 1787623945 | 16.11° C | 89% | 1018.6 hPa | 0 mm | - | 15 W/m² | - |
| 1787623644 | 16.67° C | 88% | 1018.3 hPa | 0 mm | - | 17 W/m² | - |
| 1787623339 | 16.67° C | 87% | 1018.3 hPa | 0 mm | - | 20 W/m² | - |
| 1787623038 | 17.22° C | 86% | 1018 hPa | 0 mm | - | 26 W/m² | - |
| 1787622734 | 17.22° C | 85% | 1018.4 hPa | 0 mm | - | 29 W/m² | - |
| 1787622431 | 17.78° C | 83% | 1018.3 hPa | 0 mm | - | 45 W/m² | - |
| 1787622126 | 17.78° C | 82% | 1018.1 hPa | 0 mm | - | 33 W/m² | - |
| 1787621826 | 18.33° C | 80% | 1018.2 hPa | 0 mm | - | 38 W/m² | - |
| 1787621520 | 18.89° C | 79% | 1018 hPa | 0 mm | - | 41 W/m² | - |
| 1787621216 | 18.89° C | 78% | 1018.2 hPa | 0 mm | - | 38 W/m² | - |
* Rain latest hour (hover to see other rain measurements)
** Current wind speed in m/s (hover to see current wind gust speed)